Weather History for Red Oak, IA

Change the Weather History Date:

Wednesday, November 14, 2012

  Actual Average Record
Temperature  
Mean Temperature 45 °F -  
Max Temperature 60 °F 48 °F 73 °F (1964)
Min Temperature 30 °F 27 °F 1 °F (1959)
Degree Days  
Heating Degree Days 20    
Moisture  
Dew Point 28 °F    
Average Humidity 54    
Maximum Humidity 81    
Minimum Humidity 20    
Precipitation  
Precipitation 0.00 in - - ()
Sea Level Pressure  
Sea Level Pressure 30.28 in    
Wind  
Wind Speed 5 mph (SSW)    
Max Wind Speed 17 mph    
Max Gust Speed 22 mph    
Visibility 10 miles    
Events      
Averages and records for this station are not official NWS values.
T = Trace of Precipitation, MM = Missing Value Source: NWS Daily Summary

Daily Weather History Graph

Daily Weather History Graph

Search for Another Location

Airport:

Trip Planner

Search our weather history database for the weather conditions in past years. The results will help you decide how hot, cold, wet, or windy it might be!

Date:

Astronomy

Nov. 14, 2012 Rise Set
Actual Time 7:07 AM CST 5:02 PM CST
Civil Twilight 6:38 AM CST 5:32 PM CST
Nautical Twilight 6:05 AM CST 6:05 PM CST
Astronomical Twilight 5:32 AM CST 6:37 PM CST
Moon 7:58 AM CST (11/14) 5:51 PM CST (11/14)
Length of Visible Light 10h 53m
Length of Day
9h 54m
New Moon, 1% of the Moon is Illuminated
Nov 14
New Moon
Nov 20
First Quarter
Nov 28
Full
Dec 6
Last Quarter
Dec 13
New

Hourly Weather History & Observations

Time (CST) Temp. Windchill Dew Point Humidity Pressure Visibility Wind Dir Wind Speed Gust Speed Precip Events Conditions
12:15 AM 42.8 °F 37.5 °F 33.8 °F 70% 30.32 in 10.0 mi South 9.2 mph - N/A   Clear
12:35 AM 42.8 °F 39.3 °F 33.8 °F 70% 30.32 in 10.0 mi SSW 5.8 mph - N/A   Clear
12:55 AM 42.8 °F 41.1 °F 33.8 °F 70% 30.32 in 10.0 mi SSW 3.5 mph - N/A   Clear
1:15 AM 41.0 °F - 32.0 °F 70% 30.32 in 10.0 mi Calm Calm - N/A   Clear
1:35 AM 42.8 °F 39.3 °F 30.2 °F 61% 30.32 in 10.0 mi SSW 5.8 mph - N/A   Clear
1:55 AM 39.2 °F 37.0 °F 30.2 °F 70% 30.32 in 10.0 mi SW 3.5 mph - N/A   Clear
2:15 AM 39.2 °F - 30.2 °F 70% 30.33 in 10.0 mi Calm Calm - N/A   Clear
2:35 AM 39.2 °F - 30.2 °F 70% 30.33 in 10.0 mi Calm Calm - N/A   Clear
2:55 AM 35.6 °F - 28.4 °F 75% 30.33 in 10.0 mi Calm Calm - N/A   Clear
3:15 AM 35.6 °F - 28.4 °F 75% 30.33 in 10.0 mi Calm Calm - N/A   Clear
3:35 AM 33.8 °F - 26.6 °F 75% 30.33 in 10.0 mi Calm Calm - N/A   Clear
3:55 AM 33.8 °F - 28.4 °F 81% 30.32 in 10.0 mi Calm Calm - N/A   Clear
4:15 AM 32.0 °F - 26.6 °F 80% 30.32 in 10.0 mi Calm Calm - N/A   Clear
4:35 AM 33.8 °F - 28.4 °F 81% 30.32 in 10.0 mi Calm Calm - N/A   Clear
4:55 AM 33.8 °F - 26.6 °F 75% 30.32 in 10.0 mi Calm Calm - N/A   Clear
5:15 AM 32.0 °F - 26.6 °F 80% 30.33 in 10.0 mi Calm Calm - N/A   Clear
5:35 AM 32.0 °F - 26.6 °F 80% 30.33 in 10.0 mi Calm Calm - N/A   Clear
5:55 AM 33.8 °F - 28.4 °F 81% 30.33 in 10.0 mi Calm Calm - N/A   Clear
6:15 AM 33.8 °F - 28.4 °F 81% 30.32 in 10.0 mi Calm Calm - N/A   Clear
6:35 AM 30.2 °F - 24.8 °F 80% 30.32 in 10.0 mi Calm Calm - N/A   Clear
6:55 AM 33.8 °F - 26.6 °F 75% 30.33 in 10.0 mi Calm Calm - N/A   Clear
7:15 AM 32.0 °F - 26.6 °F 80% 30.33 in 10.0 mi Calm Calm - N/A   Clear
7:35 AM 32.0 °F 28.7 °F 26.6 °F 80% 30.34 in 10.0 mi South 3.5 mph - N/A   Clear
7:55 AM 35.6 °F 32.8 °F 28.4 °F 75% 30.34 in 10.0 mi South 3.5 mph - N/A   Clear
8:15 AM 37.4 °F 33.8 °F 28.4 °F 70% 30.34 in 10.0 mi South 4.6 mph - N/A   Clear
8:35 AM 37.4 °F - 30.2 °F 75% 30.34 in 10.0 mi Calm Calm - N/A   Clear
8:55 AM 41.0 °F 36.4 °F 30.2 °F 65% 30.34 in 10.0 mi South 6.9 mph - N/A   Clear
9:15 AM 42.8 °F 37.5 °F 32.0 °F 66% 30.34 in 10.0 mi South 9.2 mph - N/A   Clear
9:35 AM 44.6 °F 39.7 °F 32.0 °F 61% 30.34 in 10.0 mi South 9.2 mph - N/A   Clear
9:55 AM 46.4 °F 41.5 °F 32.0 °F 57% 30.34 in 10.0 mi South 10.4 mph - N/A   Clear
10:15 AM 48.2 °F - 32.0 °F 54% 30.34 in 10.0 mi South 9.2 mph - N/A   Clear
10:35 AM 51.8 °F - 30.2 °F 44% 30.33 in 10.0 mi South 11.5 mph - N/A   Clear
10:55 AM 53.6 °F - 28.4 °F 38% 30.32 in 10.0 mi South 11.5 mph - N/A   Clear
11:15 AM 55.4 °F - 28.4 °F 36% 30.32 in 10.0 mi SSW 15.0 mph 19.6 mph N/A   Clear
11:35 AM 55.4 °F - 26.6 °F 33% 30.31 in 10.0 mi SSW 13.8 mph 21.9 mph N/A   Clear
11:55 AM 57.2 °F - 23.0 °F 27% 30.30 in 10.0 mi SSW 17.3 mph - N/A   Clear
12:15 PM 57.2 °F - 24.8 °F 29% 30.29 in 10.0 mi SSW 12.7 mph - N/A   Clear
12:35 PM 57.2 °F - 23.0 °F 27% 30.28 in 10.0 mi SSW 13.8 mph - N/A   Clear
12:55 PM 57.2 °F - 23.0 °F 27% 30.28 in 10.0 mi SSW 15.0 mph 20.7 mph N/A   Clear
1:15 PM 59.0 °F - 21.2 °F 23% 30.27 in 10.0 mi SSW 16.1 mph 21.9 mph N/A   Clear
1:35 PM 60.8 °F - 21.2 °F 22% 30.26 in 10.0 mi SSW 16.1 mph 19.6 mph N/A   Clear
1:55 PM 60.8 °F - 19.4 °F 20% 30.25 in 10.0 mi SSW 16.1 mph - N/A   Clear
2:15 PM 60.8 °F - 19.4 °F 20% 30.24 in 10.0 mi SSW 17.3 mph 20.7 mph N/A   Clear
2:35 PM 60.8 °F - 19.4 °F 20% 30.24 in 10.0 mi South 12.7 mph 19.6 mph N/A   Clear
2:55 PM 60.8 °F - 19.4 °F 20% 30.24 in 10.0 mi South 13.8 mph - N/A   Clear
3:15 PM 60.8 °F - 19.4 °F 20% 30.23 in 10.0 mi South 12.7 mph 18.4 mph N/A   Clear
3:35 PM 59.0 °F - 21.2 °F 23% 30.23 in 10.0 mi South 11.5 mph - N/A   Clear
3:55 PM 59.0 °F - 21.2 °F 23% 30.23 in 10.0 mi South 11.5 mph - N/A   Clear
4:15 PM 57.2 °F - 21.2 °F 25% 30.23 in 10.0 mi SSW 10.4 mph - N/A   Clear
4:35 PM 55.4 °F - 24.8 °F 31% 30.23 in 10.0 mi South 9.2 mph - N/A   Clear
4:55 PM 51.8 °F - 26.6 °F 38% 30.22 in 10.0 mi South 6.9 mph - N/A   Clear
5:15 PM 50.0 °F - 26.6 °F 40% 30.22 in 10.0 mi South 4.6 mph - N/A   Clear
5:35 PM 48.2 °F - 28.4 °F 46% 30.22 in 10.0 mi Calm Calm - N/A   Clear
5:55 PM 48.2 °F - 28.4 °F 46% 30.23 in 10.0 mi Calm Calm - N/A   Clear
6:15 PM 46.4 °F - 28.4 °F 50% 30.23 in 10.0 mi Calm Calm - N/A   Clear
6:35 PM 46.4 °F - 28.4 °F 50% 30.23 in 10.0 mi Calm Calm - N/A   Clear
6:55 PM 46.4 °F - 28.4 °F 50% 30.23 in 10.0 mi Calm Calm - N/A   Clear
7:15 PM 44.6 °F - 28.4 °F 53% 30.22 in 10.0 mi Calm Calm - N/A   Clear
7:35 PM 46.4 °F - 28.4 °F 50% 30.22 in 10.0 mi Calm Calm - N/A   Clear
7:55 PM 46.4 °F 44.3 °F 30.2 °F 53% 30.22 in 10.0 mi South 4.6 mph - N/A   Clear
8:35 PM 46.4 °F 43.5 °F 30.2 °F 53% 30.22 in 10.0 mi South 5.8 mph - N/A   Clear
8:55 PM 46.4 °F 43.5 °F 30.2 °F 53% 30.23 in 10.0 mi South 5.8 mph - N/A   Clear
9:15 PM 46.4 °F 44.3 °F 30.2 °F 53% 30.22 in 10.0 mi South 4.6 mph - N/A   Clear
9:35 PM 44.6 °F 42.2 °F 30.2 °F 57% 30.23 in 10.0 mi South 4.6 mph - N/A   Clear
9:55 PM 46.4 °F 42.9 °F 30.2 °F 53% 30.23 in 10.0 mi SSW 6.9 mph - N/A   Clear
10:15 PM 46.4 °F 42.9 °F 30.2 °F 53% 30.23 in 10.0 mi South 6.9 mph - N/A   Clear
10:35 PM 46.4 °F 43.5 °F 30.2 °F 53% 30.23 in 10.0 mi South 5.8 mph - N/A   Clear
10:55 PM 46.4 °F 44.3 °F 30.2 °F 53% 30.23 in 10.0 mi South 4.6 mph - N/A   Clear
11:15 PM 46.4 °F 45.2 °F 32.0 °F 57% 30.23 in 10.0 mi South 3.5 mph - N/A   Clear
11:35 PM 46.4 °F 43.5 °F 30.2 °F 53% 30.23 in 10.0 mi South 5.8 mph - N/A   Clear
11:55 PM 46.4 °F 45.2 °F 30.2 °F 53% 30.23 in 10.0 mi South 3.5 mph - N/A   Clear